EW4993 Weather Reports


time (UTC)temp
C
wind
direction
speed
KPH
gust
KPH
rain 1hr
cm
rain 24hr
cm
rain mn
cm
humidity
%
barometer
mb
20260506221559 15 28 6.4 17.7 0.00 0.00 0.00 83 987.3
20260506214545 15 32 9.7 20.9 0.00 0.00 0.00 83 987.2
20260506213042 15 33 8.0 20.9 0.00 0.00 0.00 83 987.3
20260506211524 15 36 8.0 19.3 0.00 0.00 0.00 83 987.3
20260506210028 15 32 14.5 25.7 0.00 0.00 0.00 82 987.5
20260506204503 16 17 17.7 25.7 0.00 0.00 0.00 82 987.6
20260506203004 16 38 11.3 24.1 0.00 0.00 0.00 82 987.5
20260506201546 16 24 9.7 24.1 0.00 0.00 0.00 81 987.3
20260506200043 16 23 9.7 25.7 0.00 0.00 0.00 81 987.3
20260506194525 17 24 11.3 25.7 0.00 0.00 0.00 81 987.1
20260506193025 17 26 1.6 17.7 0.00 0.00 0.00 82 987.3
20260506191507 17 41 12.9 22.5 0.00 0.00 0.00 82 987.4
20260506190007 18 45 9.7 24.1 0.00 0.00 0.00 81 987.2
20260506184552 18 33 9.7 22.5 0.00 0.00 0.00 80 987.1
20260506183051 19 44 4.8 19.3 0.00 0.00 0.00 80 987.1
20260506181530 19 31 11.3 20.9 0.00 0.00 0.00 81 986.9
20260506180030 18 29 8.0 19.3 0.00 0.00 0.00 82 986.9
20260506174510 18 38 8.0 17.7 0.00 0.00 0.00 83 986.5
20260506173017 17 63 4.8 14.5 0.00 0.00 0.00 82 986.8
20260506171612 16 102 6.4 14.5 0.00 0.00 0.00 79 986.7
20260506170057 15 113 6.4 16.1 0.00 0.00 0.00 78 986.8
20260506164601 15 71 14.5 29.0 0.00 0.00 0.00 76 987.0
20260506163155 14 42 20.9 29.0 0.00 0.00 0.00 76 986.7
20260506161624 13 22 16.1 29.0 0.00 0.00 0.00 77 987.8
20260506160058 14 38 17.7 35.4 0.00 0.00 0.00 77 988.6
20260506154552 15 16 16.1 35.4 0.00 0.00 0.00 78 988.6
20260506153048 15 17 14.5 32.2 0.00 0.00 0.00 78 988.1
20260506151531 15 27 20.9 33.8 0.00 0.00 0.00 77 987.7
20260506150028 16 44 20.9 33.8 0.00 0.00 0.00 77 986.7
20260506144527 16 34 16.1 27.4 0.00 0.00 0.00 76 986.5
20260506143025 17 11 19.3 32.2 0.00 0.00 0.00 75 986.4
20260506141515 17 15 16.1 27.4 0.00 0.00 0.00 75 985.7
20260506140014 18 26 20.9 30.6 0.00 0.00 0.00 75 985.7
20260506134508 20 17 16.1 22.5 0.00 0.00 0.00 75 985.0
20260506133006 23 177 0.0 0.0 0.00 0.00 0.00 67 984.8
20260506131605 23 177 0.0 0.0 0.00 0.00 0.00 67 984.5
20260506130140 22 178 0.0 0.0 0.00 0.00 0.00 68 984.4
20260506124601 22 179 0.0 6.4 0.00 0.00 0.00 68 984.2
20260506123041 22 189 1.6 6.4 0.00 0.00 0.00 68 984.1
20260506121537 22 197 0.0 0.0 0.00 0.00 0.00 69 983.9
20260506120021 22 207 0.0 0.0 0.00 0.00 0.00 69 983.9
20260506114519 22 207 0.0 0.0 0.00 0.00 0.00 70 983.9
20260506113002 22 207 0.0 0.0 0.00 0.00 0.00 70 984.0
20260506111559 22 207 0.0 0.0 0.00 0.00 0.00 70 983.9
20260506110051 22 207 0.0 0.0 0.00 0.00 0.00 70 983.8
20260506104547 22 207 0.0 0.0 0.00 0.00 0.00 70 983.8
20260506103022 22 209 0.0 0.0 0.00 0.00 0.00 71 983.5
20260506101533 22 211 0.0 8.0 0.00 0.00 0.00 71 983.4
20260506100005 22 216 6.4 9.7 0.00 0.00 0.00 71 983.2
20260506094510 23 210 4.8 9.7 0.00 0.00 0.00 71 983.0
20260506093002 23 192 6.4 9.7 0.00 0.00 0.00 71 982.9
20260506091502 23 180 6.4 12.9 0.00 0.00 0.00 72 982.9
20260506084624 23 221 6.4 14.5 0.00 0.00 0.00 73 982.9
20260506084502 23 227 6.4 9.7 0.00 0.00 0.00 73 982.9
20260506083100 23 222 4.8 12.9 0.00 0.00 0.00 74 982.9
20260506081602 23 195 6.4 16.1 0.00 0.00 0.00 74 982.8
20260506073036 23 219 8.0 19.3 0.00 0.00 0.00 74 983.0
20260506071521 23 209 9.7 22.5 0.00 0.00 0.00 74 982.8
20260506061543 23 200 9.7 22.5 0.00 0.00 0.00 74 982.7
20260506044634 23 184 9.7 19.3 0.00 0.00 0.00 75 982.9
20260506043028 23 201 8.0 16.1 0.00 0.00 0.00 75 982.9
20260506041524 23 213 9.7 16.1 0.00 0.00 0.00 75 982.7
20260506040028 23 198 8.0 12.9 0.00 0.00 0.00 76 982.6
20260506034542 23 190 4.8 11.3 0.00 0.00 0.00 76 982.6
20260506033017 23 199 8.0 16.1 0.00 0.00 0.00 77 982.3
20260506031516 23 194 4.8 9.7 0.00 0.00 0.00 78 982.2
20260506030011 23 186 4.8 11.3 0.00 0.00 0.00 79 981.9
20260506024509 23 191 4.8 14.5 0.00 0.00 0.00 80 981.7
20260506023107 23 187 6.4 12.9 0.00 0.00 0.00 80 981.3
20260506021547 24 194 4.8 11.3 0.00 0.00 0.00 81 981.0
20260506020027 24 191 3.2 8.0 0.00 0.00 0.00 81 981.0
20260506014529 24 198 4.8 12.9 0.00 0.00 0.00 81 980.8
20260506013013 25 192 3.2 14.5 0.00 0.00 0.00 82 980.7
20260506011514 25 186 4.8 14.5 0.00 0.00 0.00 81 980.6
20260506010007 25 192 4.8 14.5 0.00 0.00 0.00 81 980.6
20260506004505 26 190 6.4 14.5 0.00 0.00 0.00 80 980.6
20260506003002 26 198 4.8 11.3 0.00 0.00 0.00 80 980.6
20260506001600 26 197 6.4 12.9 0.00 0.00 0.00 79 980.7
20260506000058 26 208 9.7 16.1 0.00 0.00 0.00 78 980.7
20260505234635 27 210 8.0 17.7 0.00 0.00 0.00 77 980.7
20260505233039 27 242 11.3 17.7 0.00 0.00 0.00 76 980.5
20260505231536 27 196 6.4 12.9 0.00 0.00 0.00 77 980.5
20260505230014 27 185 9.7 20.9 0.00 0.00 0.00 75 980.2
20260505224512 27 229 9.7 17.7 0.00 0.00 0.00 75 980.3
20260505223057 27 185 11.3 19.3 0.00 0.00 0.00 75 980.3